Year,Month,Day,Hour,Minute,Value (Times are PST for temperature in C)
2006,10,07,00,00,8.60
2006,10,07,00,01,8.60
2006,10,07,00,02,8.60
2006,10,07,00,03,8.60
2006,10,07,00,04,8.60
2006,10,07,00,05,8.50
2006,10,07,00,06,8.40
2006,10,07,00,07,8.40
2006,10,07,00,08,8.40
2006,10,07,00,09,8.40
2006,10,07,00,10,8.50
2006,10,07,00,11,8.70
2006,10,07,00,12,8.80
2006,10,07,00,13,8.90
2006,10,07,00,14,9.00
2006,10,07,00,15,9.00
2006,10,07,00,16,9.00
2006,10,07,00,17,9.10
2006,10,07,00,18,9.10
2006,10,07,00,19,9.20
2006,10,07,00,20,9.20
2006,10,07,00,21,9.20
2006,10,07,00,22,9.20
2006,10,07,00,23,9.30
2006,10,07,00,24,9.30
2006,10,07,00,25,9.30
2006,10,07,00,26,9.40
2006,10,07,00,27,9.40
2006,10,07,00,28,9.40
2006,10,07,00,29,9.40
2006,10,07,00,30,9.50
2006,10,07,00,31,9.50
2006,10,07,00,32,9.50
2006,10,07,00,33,9.50
2006,10,07,00,34,9.50
2006,10,07,00,35,9.50
2006,10,07,00,36,9.50
2006,10,07,00,37,9.50
2006,10,07,00,38,9.50
2006,10,07,00,39,9.50
2006,10,07,00,40,9.60
2006,10,07,00,41,9.60
2006,10,07,00,42,9.60
2006,10,07,00,43,9.60
2006,10,07,00,44,9.60
2006,10,07,00,45,9.60
2006,10,07,00,46,9.60
2006,10,07,00,47,9.50
2006,10,07,00,48,9.50
2006,10,07,00,49,9.50
2006,10,07,00,50,9.50
2006,10,07,00,51,9.50
2006,10,07,00,52,9.50
2006,10,07,00,53,9.50
2006,10,07,00,54,9.60
2006,10,07,00,55,9.60
2006,10,07,00,56,9.60
2006,10,07,00,57,9.50
2006,10,07,00,58,9.50
2006,10,07,00,59,9.50
2006,10,07,01,00,9.50
2006,10,07,01,01,9.60
2006,10,07,01,02,9.60
2006,10,07,01,03,9.60
2006,10,07,01,04,9.70
2006,10,07,01,05,9.70
2006,10,07,01,06,9.70
2006,10,07,01,07,9.70
2006,10,07,01,08,9.70
2006,10,07,01,09,9.70
2006,10,07,01,10,9.70
2006,10,07,01,11,9.70
2006,10,07,01,12,9.70
2006,10,07,01,13,9.70
2006,10,07,01,14,9.70
2006,10,07,01,15,9.70
2006,10,07,01,16,9.70
2006,10,07,01,17,9.70
2006,10,07,01,18,9.70
2006,10,07,01,19,9.60
2006,10,07,01,20,9.60
2006,10,07,01,21,9.60
2006,10,07,01,22,9.60
2006,10,07,01,23,9.60
2006,10,07,01,24,9.60
2006,10,07,01,25,9.60
2006,10,07,01,26,9.60
2006,10,07,01,27,9.60
2006,10,07,01,28,9.70
2006,10,07,01,29,9.60
2006,10,07,01,30,9.50
2006,10,07,01,31,9.40
2006,10,07,01,32,9.40
2006,10,07,01,33,9.30
2006,10,07,01,34,9.30
2006,10,07,01,35,9.30
2006,10,07,01,36,9.30
2006,10,07,01,37,9.30
2006,10,07,01,38,9.30
2006,10,07,01,39,9.40
2006,10,07,01,40,9.40
2006,10,07,01,41,9.40
2006,10,07,01,42,9.50
2006,10,07,01,43,9.50
2006,10,07,01,44,9.50
2006,10,07,01,45,9.60
2006,10,07,01,46,9.60
2006,10,07,01,47,9.60
2006,10,07,01,48,9.60
2006,10,07,01,49,9.60
2006,10,07,01,50,9.60
2006,10,07,01,51,9.60
2006,10,07,01,52,9.70
2006,10,07,01,53,9.70
2006,10,07,01,54,9.70
2006,10,07,01,55,9.70
2006,10,07,01,56,9.70
2006,10,07,01,57,9.70
2006,10,07,01,58,9.70
2006,10,07,01,59,9.70
2006,10,07,02,00,9.70
2006,10,07,02,01,9.70
2006,10,07,02,02,9.70
2006,10,07,02,03,9.70
2006,10,07,02,04,9.70
2006,10,07,02,05,9.70
2006,10,07,02,06,9.70
2006,10,07,02,07,9.60
2006,10,07,02,08,9.50
2006,10,07,02,09,9.50
2006,10,07,02,10,9.40
2006,10,07,02,11,9.40
2006,10,07,02,12,9.30
2006,10,07,02,13,9.30
2006,10,07,02,14,9.30
2006,10,07,02,15,9.40
2006,10,07,02,16,9.50
2006,10,07,02,17,9.50
2006,10,07,02,18,9.60
2006,10,07,02,19,9.70
2006,10,07,02,20,9.70
2006,10,07,02,21,9.70
2006,10,07,02,22,9.70
2006,10,07,02,23,9.70
2006,10,07,02,24,9.70
2006,10,07,02,25,9.60
2006,10,07,02,26,9.50
2006,10,07,02,27,9.40
2006,10,07,02,28,9.30
2006,10,07,02,29,9.30
2006,10,07,02,30,9.20
2006,10,07,02,31,9.20
2006,10,07,02,32,9.20
2006,10,07,02,33,9.20
2006,10,07,02,34,9.20
2006,10,07,02,35,9.30
2006,10,07,02,36,9.30
2006,10,07,02,37,9.20
2006,10,07,02,38,9.20
2006,10,07,02,39,9.20
2006,10,07,02,40,9.20
2006,10,07,02,41,9.10
2006,10,07,02,42,9.10
2006,10,07,02,43,9.10
2006,10,07,02,44,9.10
2006,10,07,02,45,9.00
2006,10,07,02,46,9.00
2006,10,07,02,47,8.90
2006,10,07,02,48,8.80
2006,10,07,02,49,8.70
2006,10,07,02,50,8.70
2006,10,07,02,51,8.50
2006,10,07,02,52,8.50
2006,10,07,02,53,8.50
2006,10,07,02,54,8.50
2006,10,07,02,55,8.50
2006,10,07,02,56,8.50
2006,10,07,02,57,8.50
2006,10,07,02,58,8.50
2006,10,07,02,59,8.60
2006,10,07,03,00,8.70
2006,10,07,03,01,8.70
2006,10,07,03,02,8.70
2006,10,07,03,03,8.60
2006,10,07,03,04,8.60
2006,10,07,03,05,8.60
2006,10,07,03,06,8.50
2006,10,07,03,07,8.50
2006,10,07,03,08,8.50
2006,10,07,03,09,8.60
2006,10,07,03,10,8.70
2006,10,07,03,11,8.70
2006,10,07,03,12,8.70
2006,10,07,03,13,8.60
2006,10,07,03,14,8.50
2006,10,07,03,15,8.50
2006,10,07,03,16,8.40
2006,10,07,03,17,8.40
2006,10,07,03,18,8.30
2006,10,07,03,19,8.20
2006,10,07,03,20,8.20
2006,10,07,03,21,8.20
2006,10,07,03,22,8.10
2006,10,07,03,23,8.10
2006,10,07,03,24,8.10
2006,10,07,03,25,8.10
2006,10,07,03,26,8.20
2006,10,07,03,27,8.20
2006,10,07,03,28,8.20
2006,10,07,03,29,8.20
2006,10,07,03,30,8.20
2006,10,07,03,31,8.20
2006,10,07,03,32,8.10
2006,10,07,03,33,8.00
2006,10,07,03,34,8.00
2006,10,07,03,35,7.90
2006,10,07,03,36,7.90
2006,10,07,03,37,7.80
2006,10,07,03,38,7.80
2006,10,07,03,39,7.70
2006,10,07,03,40,7.60
2006,10,07,03,41,7.60
2006,10,07,03,42,7.60
2006,10,07,03,43,7.60
2006,10,07,03,44,7.70
2006,10,07,03,45,7.80
2006,10,07,03,46,7.80
2006,10,07,03,47,7.80
2006,10,07,03,48,7.80
2006,10,07,03,49,7.80
2006,10,07,03,50,7.80
2006,10,07,03,51,7.80
2006,10,07,03,52,7.80
2006,10,07,03,53,7.80
2006,10,07,03,54,7.80
2006,10,07,03,55,7.80
2006,10,07,03,56,7.80
2006,10,07,03,57,7.80
2006,10,07,03,58,7.80
2006,10,07,03,59,7.70
2006,10,07,04,00,7.60
2006,10,07,04,01,7.60
2006,10,07,04,02,7.50
2006,10,07,04,03,7.40
2006,10,07,04,04,7.40
2006,10,07,04,05,7.40
2006,10,07,04,06,7.40
2006,10,07,04,07,7.40
2006,10,07,04,08,7.30
2006,10,07,04,09,7.20
2006,10,07,04,10,7.20
2006,10,07,04,11,7.10
2006,10,07,04,12,7.00
2006,10,07,04,13,7.00
2006,10,07,04,14,7.00
2006,10,07,04,15,7.00
2006,10,07,04,16,7.00
2006,10,07,04,17,7.10
2006,10,07,04,18,7.10
2006,10,07,04,19,7.10
2006,10,07,04,20,7.20
2006,10,07,04,21,7.30
2006,10,07,04,22,7.30
2006,10,07,04,23,7.30
2006,10,07,04,24,7.30
2006,10,07,04,25,7.30
2006,10,07,04,26,7.30
2006,10,07,04,27,7.30
2006,10,07,04,28,7.40
2006,10,07,04,29,7.30
2006,10,07,04,30,7.30
2006,10,07,04,31,7.30
2006,10,07,04,32,7.30
2006,10,07,04,33,7.30
2006,10,07,04,34,7.30
2006,10,07,04,35,7.30
2006,10,07,04,36,7.30
2006,10,07,04,37,7.30
2006,10,07,04,38,7.30
2006,10,07,04,39,7.30
2006,10,07,04,40,7.20
2006,10,07,04,41,7.20
2006,10,07,04,42,7.10
2006,10,07,04,43,7.10
2006,10,07,04,44,7.10
2006,10,07,04,45,7.20
2006,10,07,04,46,7.20
2006,10,07,04,47,7.20
2006,10,07,04,48,7.20
2006,10,07,04,49,7.20
2006,10,07,04,50,7.20
2006,10,07,04,51,7.20
2006,10,07,04,52,7.10
2006,10,07,04,53,7.10
2006,10,07,04,54,7.00
2006,10,07,04,55,7.00
2006,10,07,04,56,6.90
2006,10,07,04,57,6.80
2006,10,07,04,58,6.80
2006,10,07,04,59,6.70
2006,10,07,05,00,6.70
2006,10,07,05,01,6.70
2006,10,07,05,02,6.70
2006,10,07,05,03,6.70
2006,10,07,05,04,6.60
2006,10,07,05,05,6.60
2006,10,07,05,06,6.60
2006,10,07,05,07,6.60
2006,10,07,05,08,6.60
2006,10,07,05,09,6.60
2006,10,07,05,10,6.60
2006,10,07,05,11,6.60
2006,10,07,05,12,6.60
2006,10,07,05,13,6.60
2006,10,07,05,14,6.60
2006,10,07,05,15,6.70
2006,10,07,05,16,6.70
2006,10,07,05,17,6.70
2006,10,07,05,18,6.80
2006,10,07,05,19,6.80
2006,10,07,05,20,6.80
2006,10,07,05,21,6.80
2006,10,07,05,22,6.80
2006,10,07,05,23,6.80
2006,10,07,05,24,6.80
2006,10,07,05,25,6.80
2006,10,07,05,26,6.80
2006,10,07,05,27,6.80
2006,10,07,05,28,6.80
2006,10,07,05,29,6.80
2006,10,07,05,30,6.80
2006,10,07,05,31,6.80
2006,10,07,05,32,6.80
2006,10,07,05,33,6.80
2006,10,07,05,34,6.80
2006,10,07,05,35,6.80
2006,10,07,05,36,6.80
2006,10,07,05,37,6.80
2006,10,07,05,38,6.80
2006,10,07,05,39,6.80
2006,10,07,05,40,6.80
2006,10,07,05,41,6.80
2006,10,07,05,42,6.80
2006,10,07,05,43,6.90
2006,10,07,05,44,6.90
2006,10,07,05,45,6.90
2006,10,07,05,46,6.90
2006,10,07,05,47,6.90
2006,10,07,05,48,6.90
2006,10,07,05,49,7.00
2006,10,07,05,50,7.00
2006,10,07,05,51,7.00
2006,10,07,05,52,7.00
2006,10,07,05,53,7.10
2006,10,07,05,54,7.10
2006,10,07,05,55,7.10
2006,10,07,05,56,7.20
2006,10,07,05,57,7.20
2006,10,07,05,58,7.20
2006,10,07,05,59,7.20
2006,10,07,06,00,7.20
2006,10,07,06,01,7.10
2006,10,07,06,02,7.10
2006,10,07,06,03,7.00
2006,10,07,06,04,7.00
2006,10,07,06,05,6.90
2006,10,07,06,06,6.80
2006,10,07,06,07,6.80
2006,10,07,06,08,6.70
2006,10,07,06,09,6.70
2006,10,07,06,10,6.70
2006,10,07,06,11,6.60
2006,10,07,06,12,6.70
2006,10,07,06,13,6.70
2006,10,07,06,14,6.60
2006,10,07,06,15,6.60
2006,10,07,06,16,6.60
2006,10,07,06,17,6.60
2006,10,07,06,18,6.60
2006,10,07,06,19,6.50
2006,10,07,06,20,6.40
2006,10,07,06,21,6.40
2006,10,07,06,22,6.40
2006,10,07,06,23,6.40
2006,10,07,06,24,6.40
2006,10,07,06,25,6.40
2006,10,07,06,26,6.40
2006,10,07,06,27,6.40
2006,10,07,06,28,6.30
2006,10,07,06,29,6.30
2006,10,07,06,30,6.20
2006,10,07,06,31,6.20
2006,10,07,06,32,6.20
2006,10,07,06,33,6.20
2006,10,07,06,34,6.20
2006,10,07,06,35,6.30
2006,10,07,06,36,6.30
2006,10,07,06,37,6.40
2006,10,07,06,38,6.40
2006,10,07,06,39,6.40
2006,10,07,06,40,6.50
2006,10,07,06,41,6.60
2006,10,07,06,42,6.60
2006,10,07,06,43,6.60
2006,10,07,06,44,6.60
2006,10,07,06,45,6.60
2006,10,07,06,46,6.60
2006,10,07,06,47,6.50
2006,10,07,06,48,6.40
2006,10,07,06,49,6.30
2006,10,07,06,50,6.30
2006,10,07,06,51,6.30
2006,10,07,06,52,6.30
2006,10,07,06,53,6.20
2006,10,07,06,54,6.20
2006,10,07,06,55,6.20
2006,10,07,06,56,6.20
2006,10,07,06,57,6.10
2006,10,07,06,58,6.10
2006,10,07,06,59,6.10
2006,10,07,07,00,6.10
2006,10,07,07,01,6.10
2006,10,07,07,02,6.10
2006,10,07,07,03,6.20
2006,10,07,07,04,6.20
2006,10,07,07,05,6.20
2006,10,07,07,06,6.20
2006,10,07,07,07,6.10
2006,10,07,07,08,6.10
2006,10,07,07,09,6.00
2006,10,07,07,10,5.90
2006,10,07,07,11,5.90
2006,10,07,07,12,5.80
2006,10,07,07,13,5.80
2006,10,07,07,14,5.80
2006,10,07,07,15,5.70
2006,10,07,07,16,5.70
2006,10,07,07,17,5.80
2006,10,07,07,18,5.90
2006,10,07,07,19,5.90
2006,10,07,07,20,6.00
2006,10,07,07,21,6.00
2006,10,07,07,22,6.10
2006,10,07,07,23,6.10
2006,10,07,07,24,6.10
2006,10,07,07,25,6.20
2006,10,07,07,26,6.20
2006,10,07,07,27,6.20
2006,10,07,07,28,6.10
2006,10,07,07,29,6.10
2006,10,07,07,30,6.10
2006,10,07,07,31,6.00
2006,10,07,07,32,6.00
2006,10,07,07,33,6.00
2006,10,07,07,34,6.00
2006,10,07,07,35,6.00
2006,10,07,07,36,6.00
2006,10,07,07,37,6.00
2006,10,07,07,38,6.00
2006,10,07,07,39,6.10
2006,10,07,07,40,6.10
2006,10,07,07,41,6.10
2006,10,07,07,42,6.10
2006,10,07,07,43,6.10
2006,10,07,07,44,6.10
2006,10,07,07,45,6.10
2006,10,07,07,46,6.00
2006,10,07,07,47,6.00
2006,10,07,07,48,6.10
2006,10,07,07,49,6.10
2006,10,07,07,50,6.10
2006,10,07,07,51,6.20
2006,10,07,07,52,6.20
2006,10,07,07,53,6.30
2006,10,07,07,54,6.30
2006,10,07,07,55,6.40
2006,10,07,07,56,6.40
2006,10,07,07,57,6.40
2006,10,07,07,58,6.50
2006,10,07,07,59,6.60
2006,10,07,08,00,6.60
2006,10,07,08,01,6.60
2006,10,07,08,02,6.70
2006,10,07,08,03,6.70
2006,10,07,08,04,6.80
2006,10,07,08,05,6.80
2006,10,07,08,06,6.80
2006,10,07,08,07,6.80
2006,10,07,08,08,6.90
2006,10,07,08,09,7.00
2006,10,07,08,10,7.00
2006,10,07,08,11,7.10
2006,10,07,08,12,7.20
2006,10,07,08,13,7.20
2006,10,07,08,14,7.20
2006,10,07,08,15,7.30
2006,10,07,08,16,7.30
2006,10,07,08,17,7.30
2006,10,07,08,18,7.40
2006,10,07,08,19,7.50
2006,10,07,08,20,7.50
2006,10,07,08,21,7.60
2006,10,07,08,22,7.70
2006,10,07,08,23,7.80
2006,10,07,08,24,7.80
2006,10,07,08,25,7.90
2006,10,07,08,26,7.90
2006,10,07,08,27,7.90
2006,10,07,08,28,8.00
2006,10,07,08,29,8.10
2006,10,07,08,30,8.20
2006,10,07,08,31,8.40
2006,10,07,08,32,8.50
2006,10,07,08,33,8.50
2006,10,07,08,34,8.60
2006,10,07,08,35,8.60
2006,10,07,08,36,8.70
2006,10,07,08,37,8.70
2006,10,07,08,38,8.70
2006,10,07,08,39,8.80
2006,10,07,08,40,8.80
2006,10,07,08,41,8.90
2006,10,07,08,42,9.00
2006,10,07,08,43,9.10
2006,10,07,08,44,9.20
2006,10,07,08,45,9.20
2006,10,07,08,46,9.30
2006,10,07,08,47,9.40
2006,10,07,08,48,9.50
2006,10,07,08,49,9.60
2006,10,07,08,50,9.80
2006,10,07,08,51,9.90
2006,10,07,08,52,9.90
2006,10,07,08,53,10.10
2006,10,07,08,54,10.20
2006,10,07,08,55,10.30
2006,10,07,08,56,10.30
2006,10,07,08,57,10.40
2006,10,07,08,58,10.40
2006,10,07,08,59,10.60
2006,10,07,09,00,10.60
2006,10,07,09,01,10.60
2006,10,07,09,02,10.70
2006,10,07,09,03,10.80
2006,10,07,09,04,10.80
2006,10,07,09,05,10.80
2006,10,07,09,06,10.90
2006,10,07,09,07,10.90
2006,10,07,09,08,10.90
2006,10,07,09,09,10.90
2006,10,07,09,10,10.90
2006,10,07,09,11,11.00
2006,10,07,09,12,11.10
2006,10,07,09,13,11.10
2006,10,07,09,14,11.10
2006,10,07,09,15,11.20
2006,10,07,09,16,11.20
2006,10,07,09,17,11.20
2006,10,07,09,18,11.20
2006,10,07,09,19,11.20
2006,10,07,09,20,11.20
2006,10,07,09,21,11.20
2006,10,07,09,22,11.20
2006,10,07,09,23,11.20
2006,10,07,09,24,11.10
2006,10,07,09,25,11.10
2006,10,07,09,26,11.10
2006,10,07,09,27,11.10
2006,10,07,09,28,11.10
2006,10,07,09,29,11.10
2006,10,07,09,30,11.10
2006,10,07,09,31,11.10
2006,10,07,09,32,11.10
2006,10,07,09,33,11.10
2006,10,07,09,34,11.10
2006,10,07,09,35,11.10
2006,10,07,09,36,11.10
2006,10,07,09,37,11.10
2006,10,07,09,38,11.20
2006,10,07,09,39,11.20
2006,10,07,09,40,11.20
2006,10,07,09,41,11.20
2006,10,07,09,42,11.20
2006,10,07,09,43,11.20
2006,10,07,09,44,11.20
2006,10,07,09,45,11.20
2006,10,07,09,46,11.20
2006,10,07,09,47,11.30
2006,10,07,09,48,11.30
2006,10,07,09,49,11.30
2006,10,07,09,50,11.40
2006,10,07,09,51,11.40
2006,10,07,09,52,11.40
2006,10,07,09,53,11.40
2006,10,07,09,54,11.40
2006,10,07,09,55,11.30
2006,10,07,09,56,11.30
2006,10,07,09,57,11.30
2006,10,07,09,58,11.30
2006,10,07,09,59,11.20
2006,10,07,10,00,11.20
2006,10,07,10,01,11.20
2006,10,07,10,02,11.30
2006,10,07,10,03,11.40
2006,10,07,10,04,11.40
2006,10,07,10,05,11.40
2006,10,07,10,06,11.50
2006,10,07,10,07,11.60
2006,10,07,10,08,11.60
2006,10,07,10,09,11.60
2006,10,07,10,10,11.60
2006,10,07,10,11,11.60
2006,10,07,10,12,11.60
2006,10,07,10,13,11.60
2006,10,07,10,14,11.60
2006,10,07,10,15,11.60
2006,10,07,10,16,11.60
2006,10,07,10,17,11.60
2006,10,07,10,18,11.60
2006,10,07,10,19,11.60
2006,10,07,10,20,11.60
2006,10,07,10,21,11.70
2006,10,07,10,22,11.80
2006,10,07,10,23,11.90
2006,10,07,10,24,12.00
2006,10,07,10,25,12.00
2006,10,07,10,26,12.10
2006,10,07,10,27,12.20
2006,10,07,10,28,12.30
2006,10,07,10,29,12.30
2006,10,07,10,30,12.30
2006,10,07,10,31,12.20
2006,10,07,10,32,12.20
2006,10,07,10,33,12.20
2006,10,07,10,34,12.30
2006,10,07,10,35,12.30
2006,10,07,10,36,12.30
2006,10,07,10,37,12.40
2006,10,07,10,38,12.40
2006,10,07,10,39,12.50
2006,10,07,10,40,12.50
2006,10,07,10,41,12.60
2006,10,07,10,42,12.60
2006,10,07,10,43,12.70
2006,10,07,10,44,12.80
2006,10,07,10,45,12.90
2006,10,07,10,46,13.00
2006,10,07,10,47,13.00
2006,10,07,10,48,13.00
2006,10,07,10,49,13.00
2006,10,07,10,50,13.00
2006,10,07,10,51,13.00
2006,10,07,10,52,13.00
2006,10,07,10,53,13.00
2006,10,07,10,54,13.10
2006,10,07,10,55,13.10
2006,10,07,10,56,13.20
2006,10,07,10,57,13.30
2006,10,07,10,58,13.40
2006,10,07,10,59,13.50
2006,10,07,11,00,13.60
2006,10,07,11,01,13.70
2006,10,07,11,02,13.80
2006,10,07,11,03,13.90
2006,10,07,11,04,14.10
2006,10,07,11,05,14.20
2006,10,07,11,06,14.20
2006,10,07,11,07,14.20
2006,10,07,11,08,14.20
2006,10,07,11,09,14.20
2006,10,07,11,10,14.20
2006,10,07,11,11,14.30
2006,10,07,11,12,14.30
2006,10,07,11,13,14.20
2006,10,07,11,14,14.20
2006,10,07,11,15,14.20
2006,10,07,11,16,14.10
2006,10,07,11,17,13.80
2006,10,07,11,18,13.60
2006,10,07,11,19,13.60
2006,10,07,11,20,13.30
2006,10,07,11,21,13.10
2006,10,07,11,22,13.00
2006,10,07,11,23,13.00
2006,10,07,11,24,13.00
2006,10,07,11,25,12.90
2006,10,07,11,26,13.00
2006,10,07,11,27,13.10
2006,10,07,11,28,13.10
2006,10,07,11,29,13.20
2006,10,07,11,30,13.30
2006,10,07,11,31,13.30
2006,10,07,11,32,13.20
2006,10,07,11,33,13.10
2006,10,07,11,34,13.10
2006,10,07,11,35,13.10
2006,10,07,11,36,13.30
2006,10,07,11,37,13.30
2006,10,07,11,38,13.30
2006,10,07,11,39,13.10
2006,10,07,11,40,13.10
2006,10,07,11,41,13.10
2006,10,07,11,42,13.20
2006,10,07,11,43,13.20
2006,10,07,11,44,13.20
2006,10,07,11,45,13.20
2006,10,07,11,46,13.30
2006,10,07,11,47,13.30
2006,10,07,11,48,13.10
2006,10,07,11,49,13.10
2006,10,07,11,50,13.10
2006,10,07,11,51,13.10
2006,10,07,11,52,13.30
2006,10,07,11,53,13.30
2006,10,07,11,54,13.20
2006,10,07,11,55,13.10
2006,10,07,11,56,13.10
2006,10,07,11,57,13.20
2006,10,07,11,58,13.30
2006,10,07,11,59,13.30
2006,10,07,12,00,13.30
2006,10,07,12,01,13.40
2006,10,07,12,02,13.40
2006,10,07,12,03,13.50
2006,10,07,12,04,13.60
2006,10,07,12,05,13.60
2006,10,07,12,06,13.60
2006,10,07,12,07,13.50
2006,10,07,12,08,13.50
2006,10,07,12,09,13.60
2006,10,07,12,10,13.50
2006,10,07,12,11,13.40
2006,10,07,12,12,13.30
2006,10,07,12,13,13.30
2006,10,07,12,14,13.20
2006,10,07,12,15,13.10
2006,10,07,12,16,13.10
2006,10,07,12,17,13.00
2006,10,07,12,18,13.10
2006,10,07,12,19,13.10
2006,10,07,12,20,13.20
2006,10,07,12,21,13.10
2006,10,07,12,22,13.20
2006,10,07,12,23,13.20
2006,10,07,12,24,13.20
2006,10,07,12,25,13.40
2006,10,07,12,26,13.40
2006,10,07,12,27,13.40
2006,10,07,12,28,13.50
2006,10,07,12,29,13.50
2006,10,07,12,30,13.60
2006,10,07,12,31,13.70
2006,10,07,12,32,13.70
2006,10,07,12,33,13.70
2006,10,07,12,34,13.70
2006,10,07,12,35,13.80
2006,10,07,12,36,14.00
2006,10,07,12,37,14.20
2006,10,07,12,38,14.40
2006,10,07,12,39,14.50
2006,10,07,12,40,14.70
2006,10,07,12,41,14.80
2006,10,07,12,42,14.80
2006,10,07,12,43,14.80
2006,10,07,12,44,14.90
2006,10,07,12,45,15.10
2006,10,07,12,46,15.20
2006,10,07,12,47,15.30
2006,10,07,12,48,15.40
2006,10,07,12,49,15.30
2006,10,07,12,50,15.40
2006,10,07,12,51,15.40
2006,10,07,12,52,15.20
2006,10,07,12,53,15.00
2006,10,07,12,54,14.90
2006,10,07,12,55,14.80
2006,10,07,12,56,14.80
2006,10,07,12,57,14.80
2006,10,07,12,58,14.80
2006,10,07,12,59,14.90
2006,10,07,13,00,14.90
2006,10,07,13,01,14.90
2006,10,07,13,02,14.80
2006,10,07,13,03,14.70
2006,10,07,13,04,14.60
2006,10,07,13,05,14.40
2006,10,07,13,06,14.20
2006,10,07,13,07,14.20
2006,10,07,13,08,14.20
2006,10,07,13,09,14.20
2006,10,07,13,10,14.10
2006,10,07,13,11,14.10
2006,10,07,13,12,14.00
2006,10,07,13,13,13.90
2006,10,07,13,14,14.00
2006,10,07,13,15,14.10
2006,10,07,13,16,14.10
2006,10,07,13,17,14.00
2006,10,07,13,18,13.90
2006,10,07,13,19,13.80
2006,10,07,13,20,13.90
2006,10,07,13,21,13.90
2006,10,07,13,22,13.90
2006,10,07,13,23,14.00
2006,10,07,13,24,14.00
2006,10,07,13,25,14.00
2006,10,07,13,26,14.00
2006,10,07,13,27,14.00
2006,10,07,13,28,13.90
2006,10,07,13,29,13.80
2006,10,07,13,30,13.80
2006,10,07,13,31,13.80
2006,10,07,13,32,13.80
2006,10,07,13,33,13.80
2006,10,07,13,34,13.70
2006,10,07,13,35,13.70
2006,10,07,13,36,13.70
2006,10,07,13,37,13.80
2006,10,07,13,38,13.90
2006,10,07,13,39,14.00
2006,10,07,13,40,14.10
2006,10,07,13,41,14.10
2006,10,07,13,42,14.20
2006,10,07,13,43,14.10
2006,10,07,13,44,14.20
2006,10,07,13,45,14.20
2006,10,07,13,46,14.20
2006,10,07,13,47,14.30
2006,10,07,13,48,14.30
2006,10,07,13,49,14.30
2006,10,07,13,50,14.30
2006,10,07,13,51,14.20
2006,10,07,13,52,14.10
2006,10,07,13,53,14.10
2006,10,07,13,54,14.10
2006,10,07,13,55,14.00
2006,10,07,13,56,14.00
2006,10,07,13,57,14.00
2006,10,07,13,58,14.00
2006,10,07,13,59,13.90
2006,10,07,14,00,14.00
2006,10,07,14,01,14.00
2006,10,07,14,02,14.00
2006,10,07,14,03,14.00
2006,10,07,14,04,14.10
2006,10,07,14,05,14.10
2006,10,07,14,06,14.10
2006,10,07,14,07,14.20
2006,10,07,14,08,14.20
2006,10,07,14,09,14.20
2006,10,07,14,10,14.30
2006,10,07,14,11,14.40
2006,10,07,14,12,14.40
2006,10,07,14,13,14.40
2006,10,07,14,14,14.30
2006,10,07,14,15,14.40
2006,10,07,14,16,14.50
2006,10,07,14,17,14.50
2006,10,07,14,18,14.50
2006,10,07,14,19,14.40
2006,10,07,14,20,14.40
2006,10,07,14,21,14.40
2006,10,07,14,22,14.30
2006,10,07,14,23,14.30
2006,10,07,14,24,14.40
2006,10,07,14,25,14.40
2006,10,07,14,26,14.40
2006,10,07,14,27,14.40
2006,10,07,14,28,14.40
2006,10,07,14,29,14.40
2006,10,07,14,30,14.50
2006,10,07,14,31,14.50
2006,10,07,14,32,14.60
2006,10,07,14,33,14.60
2006,10,07,14,34,14.60
2006,10,07,14,35,14.80
2006,10,07,14,36,14.90
2006,10,07,14,37,15.00
2006,10,07,14,38,15.10
2006,10,07,14,39,15.10
2006,10,07,14,40,15.00
2006,10,07,14,41,14.90
2006,10,07,14,42,15.00
2006,10,07,14,43,15.10
2006,10,07,14,44,15.10
2006,10,07,14,45,15.00
2006,10,07,14,46,14.90
2006,10,07,14,47,14.90
2006,10,07,14,48,15.00
2006,10,07,14,49,15.10
2006,10,07,14,50,15.10
2006,10,07,14,51,15.10
2006,10,07,14,52,15.10
2006,10,07,14,53,15.00
2006,10,07,14,54,14.90
2006,10,07,14,55,14.80
2006,10,07,14,56,14.70
2006,10,07,14,57,14.60
2006,10,07,14,58,14.50
2006,10,07,14,59,14.50
2006,10,07,15,00,14.50
2006,10,07,15,01,14.50
2006,10,07,15,02,14.50
2006,10,07,15,03,14.40
2006,10,07,15,04,14.40
2006,10,07,15,05,14.50
2006,10,07,15,06,14.50
2006,10,07,15,07,14.60
2006,10,07,15,08,14.70
2006,10,07,15,09,14.90
2006,10,07,15,10,15.00
2006,10,07,15,11,15.20
2006,10,07,15,12,15.40
2006,10,07,15,13,15.50
2006,10,07,15,14,15.40
2006,10,07,15,15,15.20
2006,10,07,15,16,15.20
2006,10,07,15,17,15.30
2006,10,07,15,18,15.40
2006,10,07,15,19,15.60
2006,10,07,15,20,15.80
2006,10,07,15,21,16.00
2006,10,07,15,22,16.10
2006,10,07,15,23,16.10
2006,10,07,15,24,16.10
2006,10,07,15,25,16.10
2006,10,07,15,26,16.30
2006,10,07,15,27,16.40
2006,10,07,15,28,16.40
2006,10,07,15,29,16.40
2006,10,07,15,30,16.30
2006,10,07,15,31,16.30
2006,10,07,15,32,16.40
2006,10,07,15,33,16.40
2006,10,07,15,34,16.40
2006,10,07,15,35,16.40
2006,10,07,15,36,16.40
2006,10,07,15,37,16.30
2006,10,07,15,38,16.30
2006,10,07,15,39,16.20
2006,10,07,15,40,16.20
2006,10,07,15,41,16.40
2006,10,07,15,42,16.50
2006,10,07,15,43,16.60
2006,10,07,15,44,16.70
2006,10,07,15,45,16.70
2006,10,07,15,46,16.60
2006,10,07,15,47,16.60
2006,10,07,15,48,16.60
2006,10,07,15,49,16.40
2006,10,07,15,50,16.40
2006,10,07,15,51,16.60
2006,10,07,15,52,16.70
2006,10,07,15,53,16.80
2006,10,07,15,54,16.90
2006,10,07,15,55,17.00
2006,10,07,15,56,17.10
2006,10,07,15,57,17.00
2006,10,07,15,58,17.00
2006,10,07,15,59,16.90
2006,10,07,16,00,16.90
2006,10,07,16,01,16.90
2006,10,07,16,02,16.90
2006,10,07,16,03,16.90
2006,10,07,16,04,16.90
2006,10,07,16,05,17.00
2006,10,07,16,06,17.10
2006,10,07,16,07,17.10
2006,10,07,16,08,17.10
2006,10,07,16,09,17.10
2006,10,07,16,10,17.10
2006,10,07,16,11,17.00
2006,10,07,16,12,17.00
2006,10,07,16,13,16.90
2006,10,07,16,14,16.80
2006,10,07,16,15,16.60
2006,10,07,16,16,16.50
2006,10,07,16,17,16.30
2006,10,07,16,18,16.30
2006,10,07,16,19,16.30
2006,10,07,16,20,16.30
2006,10,07,16,21,16.40
2006,10,07,16,22,16.30
2006,10,07,16,23,16.20
2006,10,07,16,24,16.00
2006,10,07,16,25,15.80
2006,10,07,16,26,15.80
2006,10,07,16,27,15.60
2006,10,07,16,28,15.60
2006,10,07,16,29,15.60
2006,10,07,16,30,15.50
2006,10,07,16,31,15.50
2006,10,07,16,32,15.50
2006,10,07,16,33,15.50
2006,10,07,16,34,15.40
2006,10,07,16,35,15.40
2006,10,07,16,36,15.50
2006,10,07,16,37,15.50
2006,10,07,16,38,15.60
2006,10,07,16,39,15.70
2006,10,07,16,40,15.70
2006,10,07,16,41,15.70
2006,10,07,16,42,15.60
2006,10,07,16,43,15.50
2006,10,07,16,44,15.50
2006,10,07,16,45,15.50
2006,10,07,16,46,15.40
2006,10,07,16,47,15.30
2006,10,07,16,48,15.30
2006,10,07,16,49,15.20
2006,10,07,16,50,15.10
2006,10,07,16,51,15.00
2006,10,07,16,52,15.00
2006,10,07,16,53,14.90
2006,10,07,16,54,14.80
2006,10,07,16,55,14.80
2006,10,07,16,56,14.70
2006,10,07,16,57,14.60
2006,10,07,16,58,14.60
2006,10,07,16,59,14.60
2006,10,07,17,00,14.50
2006,10,07,17,01,14.40
2006,10,07,17,02,14.40
2006,10,07,17,03,14.40
2006,10,07,17,04,14.40
2006,10,07,17,05,14.40
2006,10,07,17,06,14.40
2006,10,07,17,07,14.40
2006,10,07,17,08,14.40
2006,10,07,17,09,14.50
2006,10,07,17,10,14.50
2006,10,07,17,11,14.60
2006,10,07,17,12,14.70
2006,10,07,17,13,14.70
2006,10,07,17,14,14.70
2006,10,07,17,15,14.60
2006,10,07,17,16,14.50
2006,10,07,17,17,14.50
2006,10,07,17,18,14.40
2006,10,07,17,19,14.20
2006,10,07,17,20,14.20
2006,10,07,17,21,14.10
2006,10,07,17,22,14.10
2006,10,07,17,23,14.00
2006,10,07,17,24,14.00
2006,10,07,17,25,13.90
2006,10,07,17,26,13.80
2006,10,07,17,27,13.80
2006,10,07,17,28,13.80
2006,10,07,17,29,13.90
2006,10,07,17,30,13.90
2006,10,07,17,31,13.90
2006,10,07,17,32,13.90
2006,10,07,17,33,13.90
2006,10,07,17,34,13.80
2006,10,07,17,35,13.70
2006,10,07,17,36,13.70
2006,10,07,17,37,13.50
2006,10,07,17,38,13.50
2006,10,07,17,39,13.50
2006,10,07,17,40,13.50
2006,10,07,17,41,13.50
2006,10,07,17,42,13.50